This is the latest recevied weather packets stored in our database for station/object BM2MWA-13. If no packets are shown the sender has not sent any weather packets the latest 10 day(s).
| Time | Temp. | Humidity | Pressure | Rain* | Wind** | Luminosity | Snow |
|---|---|---|---|---|---|---|---|
| 1777841824 | 22.22° C | 73% | 1012.5 hPa | 0 mm | - | - | - |
| 1777841224 | 22.22° C | 73% | 1012.5 hPa | 0 mm | - | - | - |
| 1777840623 | 22.22° C | 74% | 1012.3 hPa | 0 mm | - | - | - |
| 1777840023 | 22.22° C | 76% | 1012.2 hPa | 0 mm | - | - | - |
| 1777839424 | 22.22° C | 76% | 1012.2 hPa | 0 mm | - | - | - |
| 1777838823 | 22.22° C | 77% | 1011.9 hPa | 0 mm | - | - | - |
| 1777838223 | 22.22° C | 76% | 1011.8 hPa | 0 mm | - | - | - |
| 1777837623 | 22.22° C | 76% | 1011.7 hPa | 0 mm | - | - | - |
| 1777837023 | 22.22° C | 76% | 1011.6 hPa | 0 mm | - | - | - |
| 1777836423 | 21.67° C | 77% | 1011.6 hPa | 0 mm | - | - | - |
| 1777835823 | 21.67° C | 77% | 1011.5 hPa | 0 mm | - | - | - |
| 1777835224 | 21.67° C | 77% | 1011.5 hPa | 0 mm | - | - | - |
| 1777834624 | 21.67° C | 79% | 1011.5 hPa | 0 mm | - | - | - |
| 1777834024 | 21.67° C | 78% | 1011.4 hPa | 0 mm | - | - | - |
| 1777833423 | 21.67° C | 78% | 1011.3 hPa | 0 mm | - | - | - |
| 1777832824 | 21.67° C | 78% | 1011.5 hPa | 0 mm | - | - | - |
| 1777832223 | 22.22° C | 75% | 1011.5 hPa | 0 mm | - | - | - |
| 1777831623 | 22.22° C | 73% | 1011.2 hPa | 0 mm | - | - | - |
| 1777831024 | 22.22° C | 74% | 1011.3 hPa | 0 mm | - | - | - |
| 1777830423 | 22.22° C | 76% | 1011.3 hPa | 0 mm | - | - | - |
| 1777829823 | 22.22° C | 76% | 1011 hPa | 0 mm | - | - | - |
| 1777829227 | 22.22° C | 76% | 1011 hPa | 0 mm | - | - | - |
| 1777828624 | 22.22° C | 76% | 1011.1 hPa | 0 mm | - | - | - |
| 1777828024 | 22.22° C | 77% | 1011 hPa | 0 mm | - | - | - |
| 1777827423 | 22.22° C | 76% | 1010.8 hPa | 0 mm | - | - | - |
* Rain latest hour (hover to see other rain measurements)
** Current wind speed in m/s (hover to see current wind gust speed)